Satellite: RS-38 Catalog number: 35869 Epoch time: 10020.90364909 Element set: 109 Inclination: 098.7780 deg RA of node: 075.6263 deg Eccentricity: 0.0005430 Arg of perigee: 074.0035 deg Mean anomaly: 286.1284 deg Mean motion: 14.21973389 rev/day Decay rate: 1.76e-06 rev/day^2 Epoch rev: 1779 Checksum: 320
/EX